User: anonymous   Login
Location: Unspecified
(0.0000°N, 0.0000°E)
Time: 01:09:47
(UTC+00:00)
Language:

GALILEO-FM3 - Orbit

View from above orbital plane
View from above orbital plane
View from above satellite
View from above satellite

Ground track
Ground track

The orbit data is extracted from the following two-line orbital elements,

1 38857U 12055A   17293.78512895 +.00000005 +00000-0 +00000-0 0  9996
2 38857 054.9034 188.5577 0002528 245.6027 114.4516 01.70473874031267
Epoch (UTC): 20 October 2017 18:50:35
Eccentricity: 0.0002528
inclination: 54.9034°
perigee height: 23214 km
apogee height: 23229 km
right ascension of ascending node: 188.5577°
argument of perigee: 245.6027°
revolutions per day: 1.70473874
mean anomaly at epoch: 114.4516°
orbit number at epoch: 3126

The dashed part of the orbit path shows where the satellite is in the earth's shadow,  

DLR